Location: Dover
(48.8500°N, 53.9833°W)
Time: 07:19:46
(UTC+00:00)

Cosmos 1725 Rocket - Pass Details

Date: 14 November 2025
Orbit: 961 x 989 km, 82.9° (Epoch: 12 December)

Event Time Altitude Azimuth Distance (km) Brightness Sun altitude
Rises 20:59:14 0° 192° (SSW) 3,664 7.4 -10.4°
Reaches altitude 10° 21:01:44 10° 194° (SSW) 2,724 6.8 -10.8°
Maximum altitude 21:07:59 76° 280° (W) 1,020 4.3 -11.8°
Drops below altitude 10° 21:14:19 10° 7° (N) 2,758 6.2 -12.8°
Sets 21:16:52 0° 9° (N) 3,713 6.8 -13.2°
